FW6665 Weather Reports


time (UTC)temp
F
wind
direction
speed
knots
gust
knots
rain 1hr
in
rain 24hr
in
rain mn
in
humidity
%
barometer
mb
20260906142204 80 157 2.6 8.7 0.00 0.00 0.00 39 1017.2
20260906141204 80 216 1.7 7.8 0.00 0.00 0.00 39 1017.2
20260906140204 81 206 1.7 6.1 0.00 0.00 0.00 39 1017.2
20260906135705 81 90 1.7 7.8 0.00 0.00 0.00 38 1017.2
20260906134704 81 99 2.6 6.1 0.00 0.00 0.00 37 1017.4
20260906134204 82 75 2.6 6.1 0.00 0.00 0.00 38 1017.5
20260906133705 81 182 2.6 7.8 0.00 0.00 0.00 38 1017.5
20260906133204 81 186 2.6 7.8 0.00 0.00 0.00 38 1017.7
20260906132205 80 195 3.5 7.8 0.00 0.00 0.00 38 1017.8
20260906131704 80 121 2.6 7.8 0.00 0.00 0.00 38 1018.0
20260906131204 80 114 2.6 7.8 0.00 0.00 0.00 38 1017.8
20260906130705 80 152 2.6 8.7 0.00 0.00 0.00 39 1017.9
20260906130204 79 173 2.6 8.7 0.00 0.00 0.00 41 1017.9
20260906125705 79 175 1.7 8.7 0.00 0.00 0.00 41 1017.9
20260906125204 79 200 3.5 7.8 0.00 0.00 0.00 41 1018.0
20260906124704 80 202 2.6 7.8 0.00 0.00 0.00 41 1018.0
20260906124204 80 251 0.9 7.8 0.00 0.00 0.00 41 1018.1
20260906123204 80 207 1.7 11.3 0.00 0.00 0.00 41 1018.2
20260906122704 80 221 1.7 11.3 0.00 0.00 0.00 41 1018.2
20260906122204 80 86 2.6 11.3 0.00 0.00 0.00 40 1018.2
20260906121205 80 149 2.6 11.3 0.00 0.00 0.00 40 1018.3
20260906120704 80 114 2.6 5.2 0.00 0.00 0.00 40 1018.4
20260906120204 80 179 1.7 5.2 0.00 0.00 0.00 40 1018.4
20260906115704 79 183 0.9 6.1 0.00 0.00 0.00 42 1018.6
20260906115205 79 171 1.7 6.1 0.00 0.00 0.00 44 1018.7
20260906114704 78 176 0.9 6.1 0.00 0.00 0.00 45 1018.6
20260906114204 78 93 2.6 6.1 0.00 0.00 0.00 45 1018.8
20260906113704 78 171 1.7 5.2 0.00 0.00 0.00 44 1018.8
20260906112704 78 199 1.7 8.7 0.00 0.00 0.00 45 1018.8
20260906112204 78 107 2.6 8.7 0.00 0.00 0.00 45 1018.7
20260906111705 77 164 2.6 8.7 0.00 0.00 0.00 46 1018.9
20260906111204 77 175 1.7 8.7 0.00 0.00 0.00 48 1018.9
20260906110704 77 247 1.7 11.3 0.00 0.00 0.00 50 1019.0
20260906110204 76 69 2.6 11.3 0.00 0.00 0.00 50 1019.2
20260906105704 76 130 1.7 11.3 0.00 0.00 0.00 51 1019.2
20260906104704 76 56 2.6 11.3 0.00 0.00 0.00 52 1019.2
20260906104205 75 128 1.7 11.3 0.00 0.00 0.00 53 1019.2
20260906103204 75 303 2.6 9.6 0.00 0.00 0.00 54 1019.3
20260906102704 74 185 2.6 9.6 0.00 0.00 0.00 54 1019.3
20260906102204 74 90 2.6 9.6 0.00 0.00 0.00 54 1019.4
20260906101204 75 76 2.6 5.2 0.00 0.00 0.00 55 1019.4
20260906100704 74 180 0.9 5.2 0.00 0.00 0.00 57 1019.4
20260906100204 74 117 1.7 7.8 0.00 0.00 0.00 57 1019.5
20260906095704 73 228 1.7 7.8 0.00 0.00 0.00 57 1019.5
20260906095203 73 203 1.7 7.8 0.00 0.00 0.00 59 1019.6
20260906094204 72 121 0.9 7.8 0.00 0.00 0.00 62 1019.8
20260906093704 71 89 1.7 7.8 0.00 0.00 0.00 63 1019.7
20260906092704 70 97 2.6 5.2 0.00 0.00 0.00 64 1019.9
20260906091705 70 104 1.7 7.8 0.00 0.00 0.00 66 1019.9
20260906091204 69 113 1.7 7.8 0.00 0.00 0.00 67 1019.9
20260906090705 69 71 1.7 7.8 0.00 0.00 0.00 67 1019.9
20260906085204 68 94 1.7 5.2 0.00 0.00 0.00 72 1020.0
20260906084704 67 97 0.9 5.2 0.00 0.00 0.00 73 1020.1
20260906084204 67 83 2.6 4.3 0.00 0.00 0.00 72 1020.1
20260906083704 67 140 1.7 4.3 0.00 0.00 0.00 72 1020.1
20260906083205 67 149 0.9 3.5 0.00 0.00 0.00 73 1020.2
20260906082704 66 128 1.7 5.2 0.00 0.00 0.00 75 1020.4
20260906081704 66 102 1.7 5.2 0.00 0.00 0.00 75 1020.4
20260906081204 66 99 0.9 5.2 0.00 0.00 0.00 75 1020.4
20260906080709 66 100 0.0 5.2 0.00 0.00 0.00 76 1020.4
20260906075704 65 137 1.7 4.3 0.00 0.00 0.00 76 1020.3
20260906075206 65 116 0.9 4.3 0.00 0.00 0.00 76 1020.3
20260906074705 64 111 0.9 4.3 0.00 0.00 0.00 77 1020.4
20260906073704 63 106 1.7 2.6 0.00 0.00 0.00 77 1020.4
20260906073204 62 158 0.9 2.6 0.00 0.00 0.00 77 1020.5
20260906072704 62 159 0.0 2.6 0.00 0.00 0.00 78 1020.5
20260906070208 61 180 0.0 1.7 0.00 0.00 0.00 78 1020.8
20260906065704 60 180 0.0 1.7 0.00 0.00 0.00 78 1020.9
20260906064707 60 180 0.0 1.7 0.00 0.00 0.00 78 1020.9
20260906064204 60 180 0.0 1.7 0.00 0.00 0.00 78 1020.8
20260906063708 60 180 0.9 1.7 0.00 0.00 0.00 78 1021.0
20260906063204 60 180 0.0 1.7 0.00 0.00 0.00 78 1021.1
20260906062203 60 180 0.0 1.7 0.00 0.00 0.00 78 1021.0
20260906061705 60 180 0.0 0.9 0.00 0.00 0.00 78 1020.8
20260906061204 60 180 0.0 0.9 0.00 0.00 0.00 78 1020.8
20260906060704 60 180 0.0 0.9 0.00 0.00 0.00 78 1020.8
20260906060204 60 180 0.0 1.7 0.00 0.00 0.00 78 1020.8
20260906055704 60 180 0.0 1.7 0.00 0.00 0.00 78 1020.9
20260906055204 60 180 0.0 2.6 0.00 0.00 0.00 78 1021.1
20260906054705 60 180 0.9 2.6 0.00 0.00 0.00 78 1021.1
20260906054204 59 180 0.9 2.6 0.00 0.00 0.00 78 1021.0
20260906053704 59 182 0.0 1.7 0.00 0.00 0.00 78 1020.9
20260906053204 59 182 0.0 2.6 0.00 0.00 0.00 78 1021.0
20260906052704 59 182 0.0 2.6 0.00 0.00 0.00 78 1021.1
20260906052203 59 182 0.9 2.6 0.00 0.00 0.00 78 1021.1
20260906051704 59 182 0.9 2.6 0.00 0.00 0.00 78 1021.2
20260906051204 58 185 0.9 1.7 0.00 0.00 0.00 78 1021.1
20260906050704 58 185 0.0 1.7 0.00 0.00 0.00 78 1021.2
20260906050204 58 185 0.0 1.7 0.00 0.00 0.00 78 1021.1
20260906045712 57 185 0.0 1.7 0.00 0.00 0.00 78 1021.1
20260906044204 56 185 0.0 0.0 0.00 0.00 0.00 78 1021.1
20260906043704 56 185 0.0 0.0 0.00 0.00 0.00 78 1021.0
20260906042704 56 185 0.0 0.0 0.00 0.00 0.00 78 1021.1
20260906041203 56 185 0.0 0.0 0.00 0.00 0.00 78 1021.2
20260906040204 56 185 0.0 0.0 0.00 0.00 0.00 78 1021.2
20260906035704 56 185 0.0 0.0 0.00 0.00 0.00 78 1021.3
20260906035204 56 185 0.0 0.0 0.00 0.00 0.00 78 1021.2
20260906033704 57 185 0.0 0.0 0.00 0.00 0.00 78 1021.2
20260906033204 57 185 0.0 0.0 0.00 0.00 0.00 78 1021.1
20260906032704 57 185 0.0 0.0 0.00 0.00 0.00 78 1021.2
20260906031710 57 185 0.0 0.0 0.00 0.00 0.00 78 1021.3
20260906031204 57 185 0.0 0.0 0.00 0.00 0.00 78 1021.6
20260906030704 57 185 0.0 0.0 0.00 0.00 0.00 78 1021.6
20260906030204 57 185 0.0 0.0 0.00 0.00 0.00 78 1021.6
20260906025704 58 185 0.0 0.0 0.00 0.00 0.00 78 1021.7
20260906024203 58 185 0.0 0.0 0.00 0.00 0.00 77 1021.9
20260906023706 58 185 0.0 0.0 0.00 0.00 0.00 78 1022.1
20260906023204 58 185 0.0 0.0 0.00 0.00 0.00 78 1022.1
20260906022204 58 185 0.0 0.9 0.00 0.00 0.00 78 1022.2
20260906021711 58 185 0.0 0.9 0.00 0.00 0.00 78 1022.2
20260906021204 58 185 0.0 0.9 0.00 0.00 0.00 77 1022.3
20260906020704 58 185 0.0 0.0 0.00 0.00 0.00 77 1022.3
20260906015705 58 185 0.0 0.0 0.00 0.00 0.00 77 1022.3
20260906015205 59 185 0.0 0.9 0.00 0.00 0.00 77 1022.3
20260906014704 59 185 0.0 0.9 0.00 0.00 0.00 77 1022.2
20260906013704 59 185 0.0 0.9 0.00 0.00 0.00 77 1022.4
20260906013205 59 185 0.0 0.0 0.00 0.00 0.00 77 1022.4
20260906012704 59 185 0.0 0.0 0.00 0.00 0.00 76 1022.5
20260906012205 59 185 0.0 0.0 0.00 0.00 0.00 76 1022.5
20260906011704 60 185 0.0 0.0 0.00 0.00 0.00 76 1022.4
20260906011204 60 185 0.0 0.0 0.00 0.00 0.00 76 1022.4
20260906010704 60 185 0.0 0.0 0.00 0.00 0.00 76 1022.4
20260906010204 60 185 0.0 0.0 0.00 0.00 0.00 76 1022.6
20260906005704 60 185 0.0 0.9 0.00 0.00 0.00 75 1022.5
20260906005204 60 185 0.0 0.9 0.00 0.00 0.00 76 1022.5
20260906004704 60 185 0.0 0.9 0.00 0.00 0.00 76 1022.6
20260906004204 60 185 0.0 0.9 0.00 0.00 0.00 76 1022.5
20260906003704 60 185 0.0 0.9 0.00 0.00 0.00 76 1022.6
20260906003205 60 185 0.0 0.9 0.00 0.00 0.00 76 1022.6
20260906002704 60 185 0.0 0.9 0.00 0.00 0.00 76 1022.6
20260906002204 60 185 0.0 0.9 0.00 0.00 0.00 76 1022.7
20260906001204 60 185 0.0 0.9 0.00 0.00 0.00 76 1022.8
20260906000704 60 185 0.0 0.9 0.00 0.00 0.00 76 1022.9
20260905235205 60 185 0.0 0.0 0.00 0.00 0.00 76 1022.6
20260905234204 60 185 0.0 0.0 0.00 0.00 0.00 75 1022.8
20260905233206 60 185 0.0 0.0 0.00 0.00 0.00 75 1022.7
20260905232205 61 185 0.0 0.9 0.00 0.00 0.00 74 1022.7
20260905231204 61 185 0.0 1.7 0.00 0.00 0.00 74 1022.7
20260905230705 61 185 0.0 1.7 0.00 0.00 0.00 74 1022.7
20260905230205 61 185 0.0 0.9 0.00 0.00 0.00 74 1022.7
20260905224703 61 185 0.0 0.9 0.00 0.00 0.00 74 1022.9
20260905224204 62 185 0.0 0.9 0.00 0.00 0.00 74 1022.8
20260905223704 62 185 0.0 0.9 0.00 0.00 0.00 73 1022.8
20260905223204 62 185 0.0 0.9 0.00 0.00 0.00 73 1022.7
20260905222704 62 185 0.0 0.9 0.00 0.00 0.00 73 1022.6
20260905222205 62 185 0.0 2.6 0.00 0.00 0.00 73 1022.6
20260905221205 62 185 0.0 2.6 0.00 0.00 0.00 73 1022.7
20260905220714 62 185 0.9 1.7 0.00 0.00 0.00 73 1022.7
20260905220205 62 183 0.0 1.7 0.00 0.00 0.00 73 1022.8
20260905215205 62 183 0.0 0.9 0.00 0.00 0.00 72 1022.7
20260905214709 62 183 0.0 0.9 0.00 0.00 0.00 72 1022.6
20260905214204 62 183 0.0 0.0 0.00 0.00 0.00 71 1022.5
20260905212704 63 183 0.0 1.7 0.00 0.00 0.00 71 1022.4
20260905212209 63 183 0.0 1.7 0.00 0.00 0.00 71 1022.4
20260905211704 63 183 0.0 0.9 0.00 0.00 0.00 71 1022.5
20260905211233 63 183 0.0 0.9 0.00 0.00 0.00 70 1022.4
20260905210204 63 183 0.0 3.5 0.00 0.00 0.00 70 1022.5
20260905205704 63 183 0.0 3.5 0.00 0.00 0.00 69 1022.5
20260905205205 64 183 0.9 1.7 0.00 0.00 0.00 69 1022.5
20260905204704 64 189 0.0 1.7 0.00 0.00 0.00 69 1022.4
20260905204205 64 189 0.0 1.7 0.00 0.00 0.00 68 1022.3
20260905203704 64 189 0.0 2.6 0.00 0.00 0.00 68 1022.3
20260905203204 64 189 0.0 2.6 0.00 0.00 0.00 68 1022.4
20260905202703 64 189 0.0 1.7 0.00 0.00 0.00 67 1022.4
20260905202204 65 189 0.0 1.7 0.00 0.00 0.00 67 1022.3
20260905201704 65 189 0.0 1.7 0.00 0.00 0.00 67 1022.4
20260905201204 65 189 0.0 1.7 0.00 0.00 0.00 66 1022.4
20260905200704 65 189 0.0 3.5 0.00 0.00 0.00 66 1022.4
20260905200204 65 188 0.0 3.5 0.00 0.00 0.00 66 1022.4
20260905195705 65 188 0.0 3.5 0.00 0.00 0.00 65 1022.5
20260905195204 66 188 0.9 2.6 0.00 0.00 0.00 65 1022.4
20260905194704 66 195 0.0 3.5 0.00 0.00 0.00 64 1022.5
20260905194204 66 162 0.0 3.5 0.00 0.00 0.00 64 1022.4
20260905193205 67 162 0.0 3.5 0.00 0.00 0.00 62 1022.3
20260905192706 67 148 0.0 3.5 0.00 0.00 0.00 62 1022.2
20260905192204 67 147 0.9 3.5 0.00 0.00 0.00 61 1022.1
20260905191704 67 141 0.9 2.6 0.00 0.00 0.00 60 1022.1
20260905191204 68 235 0.0 2.6 0.00 0.00 0.00 59 1022.0
20260905190204 68 238 0.0 0.9 0.00 0.00 0.00 55 1021.9
20260905185705 69 241 0.0 0.0 0.00 0.00 0.00 52 1021.9
20260905185203 69 241 0.0 0.0 0.00 0.00 0.00 50 1021.7
20260905184705 69 241 0.0 0.9 0.00 0.00 0.00 49 1021.7
20260905184204 70 241 0.0 0.9 0.00 0.00 0.00 49 1021.6
20260905183704 70 241 0.0 0.9 0.00 0.00 0.00 48 1021.6
20260905183204 70 241 0.0 0.9 0.00 0.00 0.00 48 1021.7
20260905182704 71 241 0.0 1.7 0.00 0.00 0.00 47 1021.7
20260905182203 71 241 0.0 1.7 0.00 0.00 0.00 47 1021.7
20260905181704 71 241 0.0 2.6 0.00 0.00 0.00 46 1021.7
20260905181204 72 241 0.9 2.6 0.00 0.00 0.00 46 1021.6
20260905180704 72 241 0.9 2.6 0.00 0.00 0.00 45 1021.7
20260905180205 73 241 0.0 2.6 0.00 0.00 0.00 44 1021.7
20260905175704 73 241 0.9 2.6 0.00 0.00 0.00 43 1021.6
20260905174204 74 241 0.9 4.3 0.00 0.00 0.00 43 1021.4
20260905172704 74 241 0.9 2.6 0.00 0.00 0.00 42 1021.4
20260905172205 74 241 0.9 2.6 0.00 0.00 0.00 42 1021.5
20260905171704 74 241 1.7 5.2 0.00 0.00 0.00 42 1021.6
20260905171204 74 240 0.0 5.2 0.00 0.00 0.00 42 1021.6
20260905170704 74 240 0.9 5.2 0.00 0.00 0.00 42 1021.6
20260905165204 75 228 1.7 3.5 0.00 0.00 0.00 42 1021.5
20260905164705 75 189 0.9 3.5 0.00 0.00 0.00 42 1021.6
20260905164204 74 176 0.9 4.3 0.00 0.00 0.00 42 1021.6
20260905163204 74 127 0.9 4.3 0.00 0.00 0.00 43 1021.5
20260905162704 74 231 1.7 5.2 0.00 0.00 0.00 42 1021.6
20260905162204 75 235 2.6 5.2 0.00 0.00 0.00 41 1021.5
20260905161705 75 237 1.7 4.3 0.00 0.00 0.00 42 1021.6
20260905161205 75 179 0.9 4.3 0.00 0.00 0.00 42 1021.5
20260905160705 75 244 0.0 4.3 0.00 0.00 0.00 43 1021.5
20260905160204 74 244 0.9 4.3 0.00 0.00 0.00 42 1021.5
20260905155204 75 231 2.6 3.5 0.00 0.00 0.00 42 1021.6
20260905154704 74 231 0.9 4.3 0.00 0.00 0.00 43 1021.5
20260905153705 74 231 1.7 6.1 0.00 0.00 0.00 43 1021.6
20260905153204 75 241 2.6 6.1 0.00 0.00 0.00 42 1021.6
20260905152704 75 185 1.7 6.1 0.00 0.00 0.00 42 1021.6
20260905152204 74 247 1.7 4.3 0.00 0.00 0.00 43 1021.6
20260905151704 74 245 0.0 5.2 0.00 0.00 0.00 44 1021.6
20260905151205 74 254 1.7 7.8 0.00 0.00 0.00 44 1021.7
20260905150705 74 257 0.9 7.8 0.00 0.00 0.00 43 1021.7
20260905150204 74 231 2.6 7.8 0.00 0.00 0.00 43 1021.9
20260905145704 74 257 1.7 4.3 0.00 0.00 0.00 43 1021.8
20260905145204 74 200 0.9 5.2 0.00 0.00 0.00 44 1021.8
20260905143704 73 243 1.7 7.8 0.00 0.00 0.00 45 1021.8
20260905143204 73 261 1.7 7.8 0.00 0.00 0.00 46 1021.9
20260905142704 73 247 3.5 6.1 0.00 0.00 0.00 46 1021.8